• In Uzbekistan
  • List of Countries
  • For 7 days
  • Water Temperature
  • Satellite Maps
  • Weather Map
  • Weather Widgets
  • user-avatar
    Login

    Hourly Weather Capivari

    Today, 21 September, Friday

    Time Temperature Precipitation Wind Pressure Humidity
    00:00 +22°C° 1.2 mm 1 mps 715 mmHg 86%
    01:00 +22°C° 0.2 mm 1 mps 714 mmHg 87%
    02:00 +22°C° 0.2 mm 1 mps 714 mmHg 88%
    03:00 +21°C° 0.2 mm 1 mps 714 mmHg 89%
    04:00 +21°C° 0 mm 1 mps 714 mmHg 90%
    05:00 +21°C° 0 mm 1 mps 714 mmHg 91%
    06:00 +20°C° 0 mm 1 mps 714 mmHg 92%
    07:00 +22°C° 0 mm 1 mps 715 mmHg 85%
    08:00 +24°C° 0 mm 1 mps 715 mmHg 78%
    09:00 +25°C° 0 mm 1 mps 716 mmHg 71%
    10:00 +27°C° 0 mm 2 mps 716 mmHg 64%
    11:00 +29°C° 0 mm 2 mps 716 mmHg 56%
    12:00 +30°C° 0 mm 2 mps 716 mmHg 49%
    13:00 +31°C° 0 mm 2 mps 715 mmHg 47%
    14:00 +31°C° 0 mm 2 mps 714 mmHg 44%
    15:00 +32°C° 0 mm 2 mps 714 mmHg 42%
    16:00 +30°C° 0 mm 2 mps 714 mmHg 46%
    17:00 +29°C° 0 mm 2 mps 714 mmHg 50%
    18:00 +28°C° 0 mm 1 mps 714 mmHg 54%
    19:00 +27°C° 0 mm 2 mps 714 mmHg 58%
    20:00 +26°C° 0 mm 2 mps 715 mmHg 63%
    21:00 +25°C° 0 mm 3 mps 715 mmHg 67%
    22:00 +24°C° 0 mm 3 mps 715 mmHg 72%
    23:00 +24°C° 0 mm 3 mps 715 mmHg 77%

    Tomorrow, 22 September, Saturday

    Time Temperature Precipitation Wind Pressure Humidity
    00:00 +22°C° 0 mm 3 mps 715 mmHg 82%
    01:00 +21°C° 0 mm 2 mps 715 mmHg 83%
    02:00 +21°C° 0 mm 2 mps 714 mmHg 85%
    03:00 +21°C° 0 mm 2 mps 714 mmHg 87%
    04:00 +20°C° 0 mm 2 mps 714 mmHg 87%
    05:00 +21°C° 0 mm 1 mps 714 mmHg 87%
    06:00 +21°C° 0 mm 1 mps 714 mmHg 87%
    07:00 +23°C° 0 mm 1 mps 715 mmHg 78%
    08:00 +25°C° 0 mm 1 mps 715 mmHg 69%
    09:00 +27°C° 0 mm 1 mps 716 mmHg 60%
    10:00 +29°C° 0 mm 1 mps 716 mmHg 52%
    11:00 +31°C° 0 mm 1 mps 716 mmHg 45%
    12:00 +33°C° 0 mm 1 mps 716 mmHg 37%
    13:00 +34°C° 0 mm 1 mps 715 mmHg 35%
    14:00 +34°C° 0 mm 1 mps 714 mmHg 32%
    15:00 +32°C° 0 mm 0 mps 713 mmHg 30%
    16:00 +33°C° 0 mm 1 mps 713 mmHg 34%
    17:00 +31°C° 0 mm 1 mps 713 mmHg 38%
    18:00 +30°C° 0 mm 1 mps 713 mmHg 42%
    19:00 +29°C° 0 mm 2 mps 713 mmHg 47%
    20:00 +27°C° 0 mm 2 mps 714 mmHg 52%
    21:00 +26°C° 0 mm 3 mps 714 mmHg 57%
    22:00 +26°C° 0 mm 2 mps 714 mmHg 61%
    23:00 +25°C° 0 mm 2 mps 714 mmHg 66%

    Day after tomorrow, 23 September, Sunday

    Time Temperature Precipitation Wind Pressure Humidity
    00:00 +24°C° 0 mm 2 mps 714 mmHg 70%
    01:00 +24°C° 0 mm 2 mps 714 mmHg 71%
    02:00 +23°C° 0 mm 2 mps 713 mmHg 72%
    03:00 +23°C° 0 mm 2 mps 713 mmHg 73%
    04:00 +23°C° 0 mm 2 mps 713 mmHg 72%
    05:00 +23°C° 0 mm 2 mps 713 mmHg 72%
    06:00 +22°C° 0 mm 1 mps 714 mmHg 72%
    07:00 +24°C° 0 mm 2 mps 714 mmHg 65%
    08:00 +26°C° 0 mm 2 mps 715 mmHg 59%
    09:00 +29°C° 0 mm 2 mps 716 mmHg 53%
    10:00 +30°C° 0 mm 2 mps 716 mmHg 47%
    11:00 +32°C° 0 mm 2 mps 716 mmHg 41%
    12:00 +34°C° 0 mm 1 mps 715 mmHg 35%
    13:00 +34°C° 0 mm 1 mps 715 mmHg 33%
    14:00 +35°C° 0 mm 1 mps 714 mmHg 32%
    15:00 +35°C° 0 mm 1 mps 714 mmHg 30%
    16:00 +34°C° 0 mm 1 mps 714 mmHg 33%
    17:00 +32°C° 0 mm 1 mps 714 mmHg 36%
    18:00 +31°C° 0 mm 1 mps 714 mmHg 40%
    19:00 +30°C° 0 mm 1 mps 714 mmHg 42%
    20:00 +29°C° 0 mm 2 mps 714 mmHg 43%
    21:00 +28°C° 0 mm 2 mps 715 mmHg 45%
    22:00 +27°C° 0 mm 2 mps 715 mmHg 49%
    23:00 +27°C° 0 mm 2 mps 715 mmHg 53%

    24 September, Monday

    Time Temperature Precipitation Wind Pressure Humidity
    00:00 +26°C° 0 mm 2 mps 715 mmHg 57%
    01:00 +25°C° 0 mm 2 mps 714 mmHg 59%
    02:00 +25°C° 0 mm 2 mps 714 mmHg 60%
    03:00 +24°C° 0 mm 2 mps 714 mmHg 62%
    04:00 +24°C° 0 mm 2 mps 714 mmHg 62%
    05:00 +24°C° 0 mm 1 mps 714 mmHg 63%
    06:00 +24°C° 0 mm 1 mps 715 mmHg 63%
    07:00 +26°C° 0 mm 2 mps 715 mmHg 58%
    08:00 +28°C° 0 mm 2 mps 715 mmHg 52%
    09:00 +30°C° 0 mm 3 mps 716 mmHg 47%
    10:00 +33°C° 0 mm 3 mps 716 mmHg 41%
    11:00 +34°C° 0 mm 3 mps 715 mmHg 36%
    12:00 +36°C° 0 mm 2 mps 715 mmHg 30%
    13:00 +36°C° 0 mm 2 mps 715 mmHg 29%
    14:00 +37°C° 0 mm 2 mps 714 mmHg 27%
    15:00 +36°C° 0 mm 1 mps 714 mmHg 26%
    16:00 +35°C° 0 mm 1 mps 714 mmHg 29%
    17:00 +33°C° 0 mm 1 mps 714 mmHg 33%
    18:00 +32°C° 0 mm 1 mps 714 mmHg 36%
    19:00 +31°C° 0 mm 2 mps 714 mmHg 39%
    20:00 +30°C° 0 mm 2 mps 715 mmHg 41%
    21:00 +29°C° 0 mm 3 mps 715 mmHg 44%
    22:00 +28°C° 0 mm 3 mps 715 mmHg 47%
    23:00 +27°C° 0 mm 3 mps 714 mmHg 49%

    25 September, Tuesday

    Time Temperature Precipitation Wind Pressure Humidity
    00:00 +27°C° 0 mm 3 mps 714 mmHg 52%
    01:00 +26°C° 0 mm 3 mps 714 mmHg 54%
    02:00 +26°C° 0 mm 2 mps 713 mmHg 55%
    03:00 +26°C° 0 mm 2 mps 713 mmHg 57%
    04:00 +25°C° 0 mm 2 mps 713 mmHg 57%
    05:00 +25°C° 0 mm 2 mps 714 mmHg 57%
    06:00 +25°C° 0 mm 2 mps 714 mmHg 57%
    07:00 +26°C° 0 mm 2 mps 714 mmHg 54%
    08:00 +28°C° 0 mm 2 mps 715 mmHg 51%
    09:00 +29°C° 0 mm 2 mps 715 mmHg 48%
    10:00 +31°C° 0 mm 2 mps 715 mmHg 43%
    11:00 +32°C° 0 mm 2 mps 715 mmHg 39%
    12:00 +35°C° 0 mm 3 mps 715 mmHg 34%
    13:00 +35°C° 0 mm 2 mps 714 mmHg 32%
    14:00 +36°C° 0 mm 2 mps 713 mmHg 30%
    15:00 +36°C° 0 mm 2 mps 713 mmHg 28%
    16:00 +35°C° 0 mm 2 mps 713 mmHg 32%
    17:00 +34°C° 0 mm 2 mps 713 mmHg 35%
    18:00 +31°C° 0 mm 1 mps 713 mmHg 38%
    19:00 +30°C° 0 mm 1 mps 713 mmHg 41%
    20:00 +30°C° 0 mm 2 mps 714 mmHg 43%
    21:00 +29°C° 0 mm 2 mps 714 mmHg 46%
    22:00 +28°C° 0 mm 2 mps 714 mmHg 49%
    23:00 +28°C° 0 mm 2 mps 714 mmHg 52%

    26 September, Wednesday

    Time Temperature Precipitation Wind Pressure Humidity
    00:00 +27°C° 0 mm 2 mps 713 mmHg 55%
    01:00 +27°C° 0 mm 2 mps 713 mmHg 55%
    02:00 +26°C° 0 mm 2 mps 713 mmHg 55%
    03:00 +26°C° 0 mm 2 mps 712 mmHg 56%
    04:00 +25°C° 0 mm 2 mps 712 mmHg 55%
    05:00 +25°C° 0 mm 2 mps 712 mmHg 55%
    06:00 +25°C° 0 mm 3 mps 713 mmHg 54%
    07:00 +27°C° 0 mm 3 mps 713 mmHg 51%
    08:00 +28°C° 0 mm 4 mps 713 mmHg 47%
    09:00 +30°C° 0 mm 4 mps 714 mmHg 44%
    10:00 +33°C° 0 mm 4 mps 713 mmHg 39%
    11:00 +35°C° 0 mm 4 mps 713 mmHg 34%
    12:00 +37°C° 0 mm 4 mps 713 mmHg 28%
    13:00 +37°C° 0 mm 4 mps 712 mmHg 27%
    14:00 +37°C° 0 mm 3 mps 712 mmHg 25%
    15:00 +38°C° 0 mm 3 mps 711 mmHg 24%
    16:00 +36°C° 0 mm 2 mps 711 mmHg 27%
    17:00 +34°C° 0 mm 2 mps 711 mmHg 30%
    18:00 +32°C° 0 mm 1 mps 711 mmHg 33%
    19:00 +31°C° 0 mm 1 mps 711 mmHg 35%
    20:00 +30°C° 0 mm 1 mps 712 mmHg 36%
    21:00 +30°C° 0 mm 2 mps 712 mmHg 37%
    22:00 +29°C° 0 mm 2 mps 712 mmHg 39%
    23:00 +28°C° 0 mm 2 mps 712 mmHg 41%
    Show more